Weather History for PAFB - August, 2013

Change the Weather History Date:

Monday, August 19, 2013

  Actual Average Record
Temperature  
Mean Temperature 58 °F -  
Max Temperature 64 °F 62 °F 86 °F (2004)
Min Temperature 51 °F 46 °F 37 °F (1997)
Degree Days  
Heating Degree Days 8    
Growing Degree Days 8 (Base 50)    
Moisture  
Dew Point 48 °F    
Average Humidity 73    
Maximum Humidity 92    
Minimum Humidity 45    
Precipitation  
Precipitation 0.00 in - - ()
Sea Level Pressure  
Sea Level Pressure 29.61 in    
Wind  
Wind Speed 5 mph (SE)    
Max Wind Speed 9 mph    
Max Gust Speed -    
Visibility 10 miles    
Events Rain    
Averages and records for this station are not official NWS values.
T = Trace of Precipitation, MM = Missing Value Source: NWS Daily Summary

Daily Weather History Graph

Daily Weather History Graph

Search for Another Location

Airport or City:

Trip Planner

Search our weather history database for the weather conditions in past years. The results will help you decide how hot, cold, wet, or windy it might be!

Date:

Astronomy

Aug. 19, 2013 Rise Set
Actual Time 5:51 AM AKDT 9:54 PM AKDT
Civil Twilight 4:47 AM AKDT 10:57 PM AKDT
Nautical Twilight 2:41 AM AKDT 12:53 AM AKDT
Astronomical Twilight Sun does not set Sun does not set
Moon 8:45 PM AKDT (8/19) 4:10 AM AKDT (8/19)
Length of Visible Light 18h 10m
Length of Day
16h 03m
Waxing Gibbous, 98% of the Moon is Illuminated
Aug 19
Waxing Gibbous
Aug 20
Full
Aug 28
Last Quarter
Sep 5
New
Sep 12
First Quarter

Hourly Weather History & Observations

Time (AKDT) Temp. Dew Point Humidity Pressure Visibility Wind Dir Wind Speed Gust Speed Precip Events Conditions
12:56 AM 55.9 °F 50.0 °F 80% 29.56 in 10.0 mi East 9.2 mph - N/A   Overcast
1:56 AM 54.0 °F 48.9 °F 83% 29.57 in 10.0 mi ENE 4.6 mph - N/A   Mostly Cloudy
2:56 AM 54.0 °F 50.0 °F 86% 29.57 in 10.0 mi East 3.5 mph - N/A   Mostly Cloudy
3:56 AM 51.1 °F 48.9 °F 92% 29.57 in 10.0 mi East 5.8 mph - N/A   Mostly Cloudy
4:56 AM 52.0 °F 48.9 °F 89% 29.58 in 10.0 mi ENE 3.5 mph - N/A   Overcast
5:56 AM 52.0 °F 48.9 °F 89% 29.59 in 10.0 mi ENE 3.5 mph - N/A   Overcast
6:30 AM 51.8 °F 48.2 °F 88% 29.58 in 13.0 mi Calm Calm - N/A   Mostly Cloudy
6:55 AM 51.8 °F 48.2 °F 88% 29.60 in 13.0 mi SSE 4.6 mph - N/A   Mostly Cloudy
7:55 AM 51.8 °F 48.2 °F 88% 29.60 in 13.0 mi NE 5.8 mph - N/A   Mostly Cloudy
8:55 AM 53.6 °F 48.2 °F 82% 29.62 in 13.0 mi Calm Calm - N/A   Mostly Cloudy
9:55 AM 53.6 °F 48.2 °F 82% 29.62 in 13.0 mi East 4.6 mph - N/A   Mostly Cloudy
10:55 AM 60.8 °F 48.2 °F 63% 29.62 in 13.0 mi Variable 3.5 mph - N/A   Mostly Cloudy
11:55 AM 60.8 °F 48.2 °F 63% 29.62 in 13.0 mi South 4.6 mph - N/A   Mostly Cloudy
12:55 PM 62.6 °F 46.4 °F 55% 29.62 in 13.0 mi SSW 3.5 mph - N/A   Mostly Cloudy
1:55 PM 64.4 °F 48.2 °F 56% 29.62 in 13.0 mi SW 8.1 mph - N/A   Mostly Cloudy
2:55 PM 64.4 °F 44.6 °F 49% 29.62 in 10.0 mi SW 5.8 mph - N/A   Mostly Cloudy
3:55 PM 64.4 °F 42.8 °F 45% 29.62 in 10.0 mi West 6.9 mph - N/A   Mostly Cloudy
4:55 PM 64.4 °F 42.8 °F 45% 29.62 in 7.0 mi Variable 6.9 mph - N/A   Mostly Cloudy
5:55 PM 60.8 °F 44.6 °F 55% 29.63 in 7.0 mi South 9.2 mph - N/A   Mostly Cloudy
6:55 PM 60.8 °F 48.2 °F 63% 29.63 in 7.0 mi SSE 8.1 mph - N/A   Mostly Cloudy
7:55 PM 60.8 °F 51.8 °F 72% 29.63 in 7.0 mi ESE 4.6 mph - N/A   Mostly Cloudy
8:55 PM 59.0 °F 51.8 °F 77% 29.64 in 7.0 mi Variable 3.5 mph - N/A   Mostly Cloudy
9:55 PM 57.2 °F 50.0 °F 77% 29.64 in 7.0 mi Calm Calm - N/A   Mostly Cloudy
10:56 PM 57.9 °F 53.1 °F 84% 29.65 in 8.0 mi SSW 5.8 mph - 0.00 in Rain Light Rain
11:56 PM 55.0 °F 50.0 °F 83% 29.66 in 10.0 mi Variable 4.6 mph - 0.00 in Rain Light Rain